Wainwright, AK

7:14 AM AKST on February 25, 2018 (GMT -0900)
Wainwright

Weather History for PAWI - December, 2013

Change the Weather History Date:

Sunday, December 8, 2013

  Actual Average (PABR) Record (PABR)
Temperature  
Mean Temperature 28 °F -  
Max Temperature 30 °F -4 °F 32 °F (1932)
Min Temperature 26 °F -14 °F -40 °F (1975)
Degree Days  
Heating Degree Days 37    
Moisture  
Dew Point 25 °F    
Average Humidity 88    
Maximum Humidity 93    
Minimum Humidity 80    
Precipitation  
Precipitation 0.00 in - - ()
Sea Level Pressure  
Sea Level Pressure 30.12 in    
Wind  
Wind Speed 17 mph (South)    
Max Wind Speed 28 mph    
Max Gust Speed 36 mph    
Visibility 5 miles    
Events Snow    
Averages and records for this station are not official NWS values.
T = Trace of Precipitation, MM = Missing Value Source: NWS Daily Summary

Daily Weather History Graph

Daily Weather History Graph

Search for Another Location

Airport or City:

Trip Planner

Search our weather history database for the weather conditions in past years. The results will help you decide how hot, cold, wet, or windy it might be!

Date:

Astronomy

Dec. 31, 1969 Rise Set
Actual Time Sun does not rise Sun does not rise
Civil Twilight 11:26 AM AKST 3:37 PM AKST
Nautical Twilight 9:35 AM AKST 5:27 PM AKST
Astronomical Twilight 8:14 AM AKST 6:49 PM AKST
Moon 1:54 PM AKST (12/8) No Moon Set
Length of Visible Light 4h 11m
Length of Day
0h 00m
Waxing Crescent, 41% of the Moon is Illuminated
Dec 8
Waxing Crescent
Dec 9
First Quarter
Dec 17
Full
Dec 25
Last Quarter
Jan 1
New

Hourly Weather History & Observations

Time (AKST) Temp. Windchill Dew Point Humidity Pressure Visibility Wind Dir Wind Speed Gust Speed Precip Events Conditions
12:03 AM 30.2 °F 15.7 °F 26.6 °F 86% 29.97 in 4.0 mi WSW 27.6 mph 35.7 mph N/A   Overcast
12:53 AM 30.0 °F 16.3 °F 26.1 °F 85% 30.00 in 5.0 mi SW 24.2 mph - N/A   Overcast
1:14 AM 30.2 °F 16.5 °F 26.6 °F 86% 30.00 in 9.0 mi SW 24.2 mph 31.1 mph N/A   Overcast
1:53 AM 30.0 °F 15.4 °F 25.0 °F 82% 30.03 in 3.0 mi SW 27.6 mph 34.5 mph N/A   Haze
2:11 AM 28.4 °F 13.5 °F 24.8 °F 86% 30.04 in 5.0 mi SW 26.5 mph 33.4 mph N/A   Overcast
2:23 AM 28.4 °F 14.7 °F 24.8 °F 86% 30.04 in 8.0 mi SW 21.9 mph 29.9 mph N/A   Mostly Cloudy
3:31 AM 28.4 °F 13.5 °F 24.8 °F 86% 30.07 in 5.0 mi SW 26.5 mph 34.5 mph N/A   Haze
3:53 AM 28.9 °F 15.1 °F 24.1 °F 82% 30.08 in 6.0 mi WSW 23.0 mph 32.2 mph N/A   Haze
4:31 AM 28.4 °F 14.1 °F 24.8 °F 86% 30.08 in 8.0 mi WSW 24.2 mph 33.4 mph N/A   Overcast
4:53 AM 28.0 °F 14.6 °F 23.0 °F 81% 30.09 in 10.0 mi WSW 20.7 mph - N/A   Mostly Cloudy
5:53 AM 28.0 °F 14.6 °F 24.1 °F 85% 30.10 in 10.0 mi WSW 20.7 mph - N/A   Mostly Cloudy
6:04 AM 28.4 °F 15.4 °F 24.8 °F 86% 30.10 in 10.0 mi WSW 19.6 mph - N/A   Mostly Cloudy
6:53 AM 28.0 °F 15.3 °F 24.1 °F 85% 30.13 in 10.0 mi SW 18.4 mph 25.3 mph N/A   Overcast
7:53 AM 28.0 °F 16.5 °F 24.1 °F 85% 30.15 in 10.0 mi WSW 15.0 mph - N/A   Overcast
8:53 AM 28.0 °F 17.0 °F 25.0 °F 88% 30.14 in 10.0 mi WSW 13.8 mph - N/A   Overcast
9:20 AM 28.4 °F 18.0 °F 24.8 °F 86% 30.15 in 10.0 mi WSW 12.7 mph - N/A   Overcast
9:53 AM 28.0 °F 18.1 °F 24.1 °F 85% 30.15 in 10.0 mi WSW 11.5 mph - N/A   Overcast
10:49 AM 28.4 °F 21.2 °F 24.8 °F 86% 30.15 in 10.0 mi WSW 6.9 mph - N/A   Overcast
10:53 AM 28.0 °F 20.8 °F 25.0 °F 88% 30.16 in 10.0 mi WSW 6.9 mph - N/A   Overcast
11:00 AM 28.4 °F 21.2 °F 24.8 °F 86% 30.15 in 10.0 mi SW 6.9 mph - N/A   Overcast
11:38 AM 26.6 °F 20.0 °F 24.8 °F 93% 30.16 in 10.0 mi SW 5.8 mph - N/A   Overcast
11:48 AM 26.6 °F 19.1 °F 24.8 °F 93% 30.16 in 10.0 mi SSW 6.9 mph - N/A   Overcast
11:53 AM 27.0 °F 19.5 °F 23.0 °F 85% 30.16 in 10.0 mi SW 6.9 mph - N/A   Overcast
12:04 PM 26.6 °F 19.1 °F 23.0 °F 86% 30.15 in 10.0 mi South 6.9 mph - N/A   Overcast
12:16 PM 26.6 °F 20.0 °F 23.0 °F 86% 30.15 in 10.0 mi South 5.8 mph - N/A   Overcast
12:47 PM 26.6 °F 19.1 °F 23.0 °F 86% 30.14 in 5.0 mi SSE 6.9 mph - 0.00 in Snow Light Snow
12:48 PM 26.1 °F 18.4 °F 23.0 °F 88% 30.14 in 5.0 mi SSE 6.9 mph - 0.00 in Snow Light Snow
1:12 PM 26.6 °F 16.8 °F 21.2 °F 80% 30.14 in 2.5 mi South 10.4 mph - 0.00 in Snow Light Snow
1:22 PM 26.6 °F 16.2 °F 23.0 °F 86% 30.14 in 1.2 mi South 11.5 mph - 0.00 in Snow Light Snow
1:37 PM 26.6 °F 17.5 °F 23.0 °F 86% 30.15 in 0.8 mi South 9.2 mph - 0.00 in Snow Light Snow
1:49 PM 26.6 °F 17.5 °F 24.8 °F 93% 30.15 in 1.0 mi South 9.2 mph - 0.00 in Snow Light Snow
1:53 PM 27.0 °F 18.0 °F 24.1 °F 89% 30.16 in 1.2 mi South 9.2 mph - 0.00 in Snow Light Snow
2:20 PM 26.6 °F 19.1 °F 24.8 °F 93% 30.15 in 0.8 mi South 6.9 mph - 0.00 in Snow Light Snow
2:47 PM 26.6 °F 17.5 °F 24.8 °F 93% 30.15 in 1.0 mi South 9.2 mph - 0.00 in Snow Light Snow
2:53 PM 27.0 °F 18.7 °F 24.1 °F 89% 30.15 in 1.2 mi South 8.1 mph - 0.00 in Snow Light Snow
3:03 PM 26.6 °F 18.2 °F 24.8 °F 93% 30.14 in 2.5 mi SSE 8.1 mph - 0.00 in Snow Light Snow
3:14 PM 26.6 °F 18.2 °F 24.8 °F 93% 30.14 in 2.0 mi SSE 8.1 mph - 0.00 in Snow Light Snow
3:27 PM 26.6 °F 18.2 °F 24.8 °F 93% 30.13 in 1.5 mi SSE 8.1 mph - 0.00 in Snow Light Snow
3:53 PM 27.0 °F 17.3 °F 24.1 °F 89% 30.14 in 1.2 mi SSE 10.4 mph - 0.00 in Snow Light Snow
4:00 PM 26.6 °F 16.8 °F 24.8 °F 93% 30.13 in 1.8 mi SSE 10.4 mph - 0.00 in Snow Light Snow
4:24 PM 26.6 °F 16.8 °F 24.8 °F 93% 30.13 in 5.0 mi SSE 10.4 mph - 0.00 in Snow Light Snow
4:53 PM 27.0 °F 17.3 °F 24.1 °F 89% 30.13 in 4.0 mi SE 10.4 mph - 0.00 in Snow Light Snow
5:53 PM 28.0 °F 17.0 °F 25.0 °F 88% 30.12 in 6.0 mi SSE 13.8 mph - 0.00 in Snow Light Snow
6:13 PM 28.4 °F 17.0 °F 24.8 °F 86% 30.12 in 6.0 mi South 15.0 mph - 0.00 in   Overcast
6:53 PM 28.0 °F 17.5 °F 25.0 °F 88% 30.12 in 4.0 mi SSE 12.7 mph - 0.00 in Snow Light Snow
7:18 PM 26.6 °F 15.7 °F 24.8 °F 93% 30.12 in 5.0 mi SSE 12.7 mph - 0.00 in Snow Light Snow
7:53 PM 28.0 °F 17.5 °F 25.0 °F 88% 30.12 in 5.0 mi SSE 12.7 mph - 0.00 in Snow Light Snow
8:00 PM 28.4 °F 18.0 °F 24.8 °F 86% 30.12 in 5.0 mi SSE 12.7 mph - 0.00 in Snow Light Snow
8:53 PM 28.0 °F 18.1 °F 25.0 °F 88% 30.13 in 5.0 mi SSE 11.5 mph - 0.00 in Snow Light Snow
9:53 PM 28.0 °F 18.1 °F 25.0 °F 88% 30.12 in 5.0 mi SSE 11.5 mph - 0.00 in Snow Light Snow
10:44 PM 28.4 °F 18.0 °F 26.6 °F 93% 30.12 in 2.5 mi SSE 12.7 mph - 0.00 in Snow Light Snow
10:53 PM 28.9 °F 18.6 °F 26.1 °F 89% 30.13 in 3.0 mi SSE 12.7 mph - 0.00 in Snow Light Snow
11:34 PM 30.2 °F 20.2 °F 26.6 °F 86% 30.12 in 3.0 mi SSE 12.7 mph - 0.00 in Snow Light Snow
11:43 PM 30.2 °F 20.8 °F 26.6 °F 86% 30.12 in 1.8 mi SSE 11.5 mph - 0.00 in Snow Light Snow
11:51 PM 30.2 °F 20.8 °F 26.6 °F 86% 30.12 in 1.5 mi SSE 11.5 mph - 0.00 in Snow Light Snow
11:53 PM 30.0 °F 20.5 °F 27.0 °F 88% 30.12 in 1.5 mi SSE 11.5 mph - 0.00 in Snow Light Snow